Waarnemingen

Advertentie
Mijn weer
Sa Pobla, Spanje (8312): temperatuur & dauwpunt: 11.01.2021 19:00:00 - 17.01.2021 19:00:00 (CET)Sa Pobla, Spanje (8312): windsnelheid & windstoten: 11.01.2021 19:00:00 - 17.01.2021 19:00:00 (CET)Sa Pobla, Spanje (8312): windrichting: 11.01.2021 19:00:00 - 17.01.2021 19:00:00 (CET)Sa Pobla, Spanje (8312): luchtdruk: 11.01.2021 19:00:00 - 17.01.2021 19:00:00 (CET)Sa Pobla, Spanje (8312): zicht: 11.01.2021 19:00:00 - 17.01.2021 19:00:00 (CET)Sa Pobla, Spanje (8312): Zonneschijnduur: 11.01.2021 19:00:00 - 17.01.2021 19:00:00 (CET)Sa Pobla, Spanje (8312): neerslag: 11.01.2021 19:00:00 - 17.01.2021 19:00:00 (CET)
Datum & Tijd tt [°C] td [°C] ff [km/u] ff [kn] fx [km/u] fx [kn] dd ppp [hPa] vv [km] sd [min] rr [mm]
17.01.2021 19:00:00 - - - - - - - - - - -
17.01.2021 18:00:00 15,5 3,9 11 6 39 21 W 1022,0 20 0 0,0
17.01.2021 17:00:00 16,9 3,2 15 8 45 24 WNW 1021,5 20 51 0,0
17.01.2021 16:00:00 18,4 3,4 8 5 54 29 W 1021,8 20 60 0,0
17.01.2021 15:00:00 18,4 3,4 15 8 38 20 WNW 1021,6 20 60 0,0
17.01.2021 14:00:00 19,0 2,9 11 6 35 19 OZO 1022,3 20 60 0,0
17.01.2021 13:00:00 19,0 2,3 9 5 42 23 WNW 1023,0 20 60 -
17.01.2021 12:00:00 17,9 -1,0 18 10 46 25 W 1023,6 20 60 0,0
17.01.2021 11:00:00 16,9 -2,2 18 10 36 20 WZW 1024,2 20 60 0,0
17.01.2021 10:00:00 12,5 6,1 6 4 20 11 ZO 1024,4 20 60 0,0
17.01.2021 09:00:00 10,6 7,3 10 6 30 16 ZZW 1024,4 20 41 0,0
17.01.2021 08:00:00 10,4 8,1 14 8 38 20 ZZW 1024,3 20 0 0,0
17.01.2021 07:00:00 10,4 8,0 19 10 36 19 ZZW 1024,6 20 0 -
17.01.2021 06:00:00 10,0 7,3 12 6 39 21 ZW 1024,9 20 0 0,0
17.01.2021 05:00:00 9,1 5,9 11 6 22 12 ZW 1025,2 20 0 0,0
17.01.2021 04:00:00 6,5 4,6 6 3 17 9 ZW 1026,0 20 0 0,0
17.01.2021 03:00:00 4,3 3,0 8 4 13 7 ZZW 1026,9 20 0 0,0
17.01.2021 02:00:00 4,1 2,7 6 3 10 5 Z 1027,4 20 0 0,0
17.01.2021 01:00:00 3,3 2,1 4 2 9 5 W 1028,1 15 0 -
17.01.2021 00:00:00 3,8 2,1 4 2 13 7 WZW 1028,1 17 0 0,0
16.01.2021 23:00:00 4,1 2,7 6 4 11 6 W 1028,3 17 0 0,0
16.01.2021 22:00:00 4,6 3,2 3 2 8 4 WZW 1028,4 14 0 0,0
16.01.2021 21:00:00 5,4 3,8 4 2 9 5 ZZW 1028,1 12 0 0,0
16.01.2021 20:00:00 7,4 5,1 6 3 11 6 Z 1028,0 18 0 0,0
16.01.2021 19:00:00 7,6 5,5 2 1 8 5 ZZO 1027,5 20 0 -
16.01.2021 18:00:00 10,4 6,8 4 2 16 9 ZW 1026,8 20 0 0,0
16.01.2021 17:00:00 12,6 6,8 9 5 17 9 ZZW 1026,4 20 51 0,0
16.01.2021 16:00:00 13,9 5,0 4 2 10 5 Z 1026,2 20 60 0,0
16.01.2021 15:00:00 13,9 5,0 3 2 11 6 ZO 1026,1 20 60 0,0
16.01.2021 14:00:00 12,9 4,6 7 4 18 10 O 1026,1 20 60 0,0
16.01.2021 13:00:00 12,4 5,1 10 5 24 13 NNO 1026,4 20 57 -
16.01.2021 12:00:00 12,0 5,0 15 8 29 16 NNO 1027,1 20 60 0,0
16.01.2021 11:00:00 11,4 4,6 17 9 28 15 N 1027,1 20 60 0,0
16.01.2021 10:00:00 9,3 7,1 7 4 15 8 N 1026,4 20 26 0,0
16.01.2021 09:00:00 6,0 5,5 4 2 8 4 ZZO 1025,6 10 0 0,2
16.01.2021 08:00:00 6,1 5,5 6 3 10 6 WZW 1025,3 3,2 0 0,8
16.01.2021 07:00:00 5,5 4,8 6 3 10 5 ZZW 1024,7 8 0 -
16.01.2021 06:00:00 5,0 4,1 4 2 10 6 Z 1024,1 8 0 0,2
16.01.2021 05:00:00 5,7 4,8 4 2 12 6 Z 1023,4 4,0 0 0,4
16.01.2021 04:00:00 5,0 3,9 5 3 11 6 Z 1023,1 11 0 0,0
16.01.2021 03:00:00 5,0 4,1 4 2 9 5 ZW 1023,2 12 0 0,0
16.01.2021 02:00:00 4,4 3,4 4 2 9 5 Z 1022,7 14 0 0,0
16.01.2021 01:00:00 4,1 3,0 4 2 13 7 Z 1022,6 16 0 -
16.01.2021 00:00:00 4,4 3,4 4 2 8 4 ZZW 1022,8 14 0 0,0
15.01.2021 23:00:00 5,4 4,1 3 2 10 6 W 1022,5 17 0 0,0
15.01.2021 22:00:00 7,0 4,6 2 1 14 8 Z 1022,2 20 0 0,0
15.01.2021 21:00:00 7,8 5,3 8 4 12 7 ZZO 1021,9 20 0 0,0
15.01.2021 20:00:00 6,3 4,1 4 2 9 5 Z 1022,1 16 0 0,0
15.01.2021 19:00:00 7,2 4,8 4 2 6 3 OZO 1021,9 20 0 -
15.01.2021 18:00:00 8,9 5,0 4 2 12 6 W 1021,7 20 0 0,0
15.01.2021 17:00:00 11,7 5,1 5 3 20 11 W 1021,7 20 2 0,0
15.01.2021 16:00:00 12,9 4,6 8 5 19 11 W 1021,4 20 49 0,0
15.01.2021 15:00:00 14,5 5,8 5 3 15 8 Z 1021,4 20 45 0,0
15.01.2021 14:00:00 14,1 5,9 5 3 15 8 O 1021,6 20 22 0,0
15.01.2021 13:00:00 13,8 6,8 8 4 15 8 NO 1022,3 20 37 -
15.01.2021 12:00:00 13,2 5,6 4 2 9 5 ZO 1023,0 20 58 0,0
15.01.2021 11:00:00 11,7 6,4 8 4 12 6 ZZO 1023,2 20 60 0,0
15.01.2021 10:00:00 7,5 5,5 6 3 15 8 Z 1023,2 20 60 0,0
15.01.2021 09:00:00 3,1 2,3 6 3 11 6 ZW 1022,9 20 43 0,0
15.01.2021 08:00:00 0,3 -0,5 3 2 8 5 ZZW 1023,0 10 0 0,0
15.01.2021 07:00:00 0,6 0,0 4 2 8 4 ZZW 1022,5 11 0 -
15.01.2021 06:00:00 0,9 0,2 5 3 9 5 O 1022,4 12 0 0,0
15.01.2021 05:00:00 1,1 0,2 2 1 14 7 NNW 1022,3 16 0 0,0
15.01.2021 04:00:00 2,1 1,1 7 4 14 8 ZZW 1022,5 15 0 0,0
15.01.2021 03:00:00 2,0 1,1 10 5 15 8 ZZW 1022,7 13 0 0,0
15.01.2021 02:00:00 2,5 1,5 6 3 14 7 ZZW 1022,9 13 0 0,0
15.01.2021 01:00:00 2,3 1,5 9 5 14 8 Z 1023,1 10 0 -
15.01.2021 00:00:00 2,7 1,5 6 3 16 8 Z 1023,3 9 0 0,0
14.01.2021 23:00:00 3,0 1,9 4 2 14 7 ZW 1023,2 10 0 0,0
14.01.2021 22:00:00 4,0 2,9 5 3 10 5 Z 1023,1 17 0 0,0
14.01.2021 21:00:00 5,6 3,4 3 2 11 6 ZW 1022,8 20 0 0,0
14.01.2021 20:00:00 6,1 3,8 5 3 8 4 ZZW 1022,5 20 0 0,0
14.01.2021 19:00:00 7,5 4,8 3 2 8 5 NO 1022,4 20 0 -
14.01.2021 18:00:00 9,4 6,2 3 2 9 5 ZZO 1022,1 20 0 0,0
14.01.2021 17:00:00 12,2 7,1 7 4 16 9 NNO 1022,2 20 30 0,0
14.01.2021 16:00:00 14,7 5,9 5 3 12 7 ZZO 1022,0 20 60 0,0
14.01.2021 15:00:00 14,6 6,2 4 2 11 6 Z 1022,1 20 56 0,0
14.01.2021 14:00:00 14,3 5,9 5 3 16 8 OZO 1022,9 20 60 0,0
14.01.2021 13:00:00 13,7 5,3 8 4 14 7 ZO 1023,9 20 60 -
14.01.2021 12:00:00 13,0 5,6 5 3 11 6 ZZO 1024,9 20 60 0,0
14.01.2021 11:00:00 9,6 5,9 3 2 6 3 Z 1025,4 20 60 0,0
14.01.2021 10:00:00 5,3 4,3 4 2 7 4 ZZO 1025,5 15 60 0,0
14.01.2021 09:00:00 2,1 1,5 4 2 11 6 Z 1025,3 13 41 0,0
14.01.2021 08:00:00 1,2 0,4 4 2 12 7 ZZO 1025,1 9 0 0,0
14.01.2021 07:00:00 0,7 0,0 5 3 14 8 ZZO 1025,2 6 0 -
14.01.2021 06:00:00 2,0 1,3 9 5 12 7 ZZW 1025,1 15 0 0,0
14.01.2021 05:00:00 2,4 1,7 4 2 13 7 ZW 1025,7 14 0 0,0
14.01.2021 04:00:00 2,5 1,7 10 5 13 7 Z 1026,1 11 0 0,0
14.01.2021 03:00:00 2,0 1,3 4 2 9 5 ZW 1026,3 8 0 0,0
14.01.2021 02:00:00 2,5 1,7 6 3 13 7 Z 1026,4 8 0 0,0
14.01.2021 01:00:00 3,1 2,3 9 5 13 7 ZZW 1026,9 10 0 -
14.01.2021 00:00:00 3,1 2,3 4 2 10 5 ZW 1027,5 10 0 0,0
13.01.2021 23:00:00 3,9 3,0 5 3 9 5 ZW 1027,8 15 0 0,0
13.01.2021 22:00:00 4,5 3,4 6 3 8 4 ZZW 1027,7 13 0 0,0
13.01.2021 21:00:00 5,2 3,6 4 2 9 5 W 1027,5 10 0 0,0
13.01.2021 20:00:00 6,8 4,6 5 3 9 5 WZW 1027,6 20 0 0,0
13.01.2021 19:00:00 7,8 5,1 5 3 8 5 Z 1027,3 20 0 -
13.01.2021 18:00:00 9,4 6,7 2 1 6 3 ZZW 1026,7 11 0 0,0
13.01.2021 17:00:00 12,9 6,5 4 2 10 5 NO 1026,6 20 51 0,0
13.01.2021 16:00:00 13,6 6,2 7 4 - - ONO 1026,7 20 - -
13.01.2021 15:00:00 13,9 5,8 8 5 15 8 ONO 1026,6 13 60 0,0
13.01.2021 14:00:00 13,9 4,1 6 4 13 7 ONO 1026,8 20 60 0,0
13.01.2021 13:00:00 13,0 3,9 6 4 10 6 NNO 1027,3 20 60 -
13.01.2021 12:00:00 12,3 4,5 6 3 13 7 ZZW 1028,0 20 60 0,0
13.01.2021 11:00:00 9,7 4,3 9 5 16 8 Z 1028,1 20 60 0,0
13.01.2021 10:00:00 5,8 3,0 7 4 15 8 ZW 1028,2 20 60 0,0
13.01.2021 09:00:00 2,1 0,9 4 2 16 8 ZZW 1028,1 19 40 0,0
13.01.2021 08:00:00 0,7 -0,3 7 4 12 7 ZZW 1027,7 20 0 0,0
13.01.2021 07:00:00 0,6 -0,5 8 4 16 9 Z 1027,3 16 0 -
13.01.2021 06:00:00 0,7 -0,3 5 3 12 6 Z 1027,0 19 0 0,0
13.01.2021 05:00:00 0,5 -0,7 6 3 13 7 Z 1027,2 16 0 0,0
13.01.2021 04:00:00 1,3 0,2 8 4 13 7 ZZW 1027,4 20 0 0,0
13.01.2021 03:00:00 1,0 -0,3 4 2 12 6 ZW 1027,4 13 0 0,0
13.01.2021 02:00:00 0,8 -0,3 4 2 13 7 ZZW 1027,4 16 0 0,0
13.01.2021 01:00:00 1,1 0,0 2 1 9 5 ONO 1028,0 17 0 -
13.01.2021 00:00:00 1,7 0,2 6 3 13 7 ZZW 1028,0 12 0 0,0
12.01.2021 23:00:00 2,0 0,6 8 4 11 6 ZZW 1027,9 17 0 0,0
12.01.2021 22:00:00 2,6 1,1 4 2 10 5 W 1027,6 19 0 0,0
12.01.2021 21:00:00 2,9 1,5 4 2 9 5 Z 1027,3 20 0 0,0
12.01.2021 20:00:00 3,8 2,1 4 2 10 5 ZW 1027,0 20 0 0,0
12.01.2021 19:00:00 5,8 2,5 4 2 9 5 ZO 1026,7 20 0 -
12.01.2021 18:00:00 8,9 2,1 6 3 17 9 ZO 1026,0 20 0 0,0
12.01.2021 17:00:00 12,1 1,9 2 1 11 6 NNO 1025,4 20 49 0,0
12.01.2021 16:00:00 13,2 1,9 9 5 23 13 ZZW 1025,2 20 60 0,0
12.01.2021 15:00:00 13,8 2,3 6 3 14 8 OZO 1025,1 20 60 0,0
12.01.2021 14:00:00 13,6 0,9 3 1 13 7 ZZO 1025,4 20 60 0,0
12.01.2021 13:00:00 12,8 2,3 7 4 16 9 W 1025,8 20 60 -
12.01.2021 12:00:00 12,2 3,4 7 4 16 9 WNW 1026,4 20 60 0,0
12.01.2021 11:00:00 10,8 3,8 4 2 9 5 Z 1026,8 20 60 0,0
12.01.2021 10:00:00 4,5 2,1 3 2 9 5 OZO 1026,6 20 60 0,0
12.01.2021 09:00:00 1,6 0,4 6 4 12 6 ZW 1025,8 20 41 0,0
12.01.2021 08:00:00 0,9 0,0 8 4 14 7 ZW 1025,5 20 0 0,0
12.01.2021 07:00:00 0,4 -0,5 3 2 13 7 ZZW 1025,2 19 0 -
12.01.2021 06:00:00 0,8 0,0 4 2 10 5 ZZW 1025,0 18 0 0,0
12.01.2021 05:00:00 0,7 -0,3 3 1 11 6 WZW 1024,7 17 0 0,0
12.01.2021 04:00:00 1,0 0,2 6 4 10 5 Z 1024,7 18 0 0,0
12.01.2021 03:00:00 1,3 0,2 2 1 10 5 Z 1024,8 20 0 0,0
12.01.2021 02:00:00 2,7 1,9 6 3 11 6 ZZW 1024,2 20 0 0,0
12.01.2021 01:00:00 3,4 2,3 7 4 9 5 ZZW 1023,8 9 0 -
12.01.2021 00:00:00 3,9 2,7 4 2 11 6 ZZO 1024,1 8 0 0,0
11.01.2021 23:00:00 5,8 4,3 4 2 9 5 ZZW 1024,0 12 0 0,0
11.01.2021 22:00:00 6,4 4,6 5 3 10 5 Z 1023,7 14 0 0,0
11.01.2021 21:00:00 6,9 4,3 4 2 11 6 WZW 1023,2 20 0 0,0
11.01.2021 20:00:00 6,6 4,5 4 2 9 5 WZW 1022,8 20 0 0,0
11.01.2021 19:00:00 6,8 3,9 4 2 8 5 W 1022,3 20 0 -

tt = temperatuur
td = dauwpunt
ff = windsnelheid
fx = windstoten
dd = windrichting
ppp = luchtdruk
vv = zicht
sd = Zonneschijnduur
rr = neerslag

Weerstations in de omgeving